EW5549 Weather Reports


Display with metric or nautical units.
time (UTC)temp
F
wind
direction
speed
MPH
gust
MPH
rain 1hr
in
rain 24hr
in
rain mn
in
humidity
%
barometer
mb
20260508124621 40 23 0.0 0.0 0.00 0.00 0.00 92 1016.7
20260508124118 40 48 0.0 0.0 0.00 0.00 0.00 93 1016.9
20260508123616 40 28 0.0 0.0 0.00 0.00 0.00 93 1016.7
20260508123113 39 75 0.0 0.0 0.00 0.00 0.00 94 1016.6
20260508122609 38 74 0.0 0.0 0.00 0.00 0.00 94 1016.6
20260508122107 39 100 0.0 0.0 0.00 0.00 0.00 94 1016.6
20260508121605 39 100 0.0 0.0 0.00 0.00 0.00 94 1016.5
20260508121102 39 98 1.0 2.0 0.00 0.00 0.00 94 1016.6
20260508120600 39 26 0.0 0.0 0.00 0.00 0.00 93 1016.5
20260508120058 38 26 0.0 0.0 0.00 0.00 0.00 93 1016.5
20260508115555 39 26 0.0 0.0 0.00 0.00 0.00 92 1016.5
20260508115051 39 331 1.0 1.0 0.00 0.00 0.00 92 1016.5
20260508114549 39 29 0.0 0.0 0.00 0.00 0.00 92 1016.3
20260508114045 40 29 0.0 0.0 0.00 0.00 0.00 91 1016.6
20260508113542 41 14 0.0 0.0 0.00 0.00 0.00 92 1016.4
20260508113040 39 53 0.0 0.0 0.00 0.00 0.00 91 1016.5
20260508112536 40 53 0.0 0.0 0.00 0.00 0.00 89 1016.5
20260508112033 40 64 0.0 0.0 0.00 0.00 0.00 89 1016.6
20260508111530 41 68 0.0 0.0 0.00 0.00 0.00 87 1016.4
20260508111027 43 111 1.0 1.0 0.00 0.00 0.00 85 1016.4
20260508110525 43 117 0.0 1.0 0.00 0.00 0.00 85 1016.5
20260508110021 43 123 1.0 1.0 0.00 0.00 0.00 84 1016.1
20260508105516 44 190 1.0 2.0 0.00 0.00 0.00 82 1016.3
20260508105014 44 162 5.0 6.0 0.00 0.00 0.00 84 1016.3
20260508104511 43 171 3.0 3.0 0.00 0.00 0.00 86 1016.3
20260508104007 43 163 3.0 3.0 0.00 0.00 0.00 85 1016.1
20260508103504 44 169 1.0 2.0 0.00 0.00 0.00 84 1016.0
20260508103001 44 158 3.0 3.0 0.00 0.00 0.00 84 1016.3
20260508102500 44 167 3.0 3.0 0.00 0.00 0.00 85 1016.3
20260508101956 44 144 3.0 5.0 0.00 0.00 0.00 86 1016.3
20260508101454 44 144 3.0 3.0 0.00 0.00 0.00 84 1016.1
20260508100951 44 125 2.0 2.0 0.00 0.00 0.00 85 1016.0
20260508100450 44 111 1.0 2.0 0.00 0.00 0.00 85 1016.0
20260508095945 45 56 1.0 1.0 0.00 0.00 0.00 84 1016.3
20260508095443 44 109 2.0 2.0 0.00 0.00 0.00 84 1016.1
20260508094939 43 105 2.0 2.0 0.00 0.00 0.00 88 1016.1
20260508094431 42 88 3.0 3.0 0.00 0.00 0.00 89 1016.1
20260508093928 44 86 3.0 3.0 0.00 0.00 0.00 89 1016.3
20260508093425 44 69 2.0 2.0 0.00 0.00 0.00 89 1016.3
20260508092923 44 67 0.0 0.0 0.00 0.00 0.00 90 1016.1
20260508092421 44 67 0.0 0.0 0.00 0.00 0.00 90 1016.3
20260508091919 43 67 0.0 0.0 0.00 0.00 0.00 91 1016.1
20260508091415 43 67 0.0 0.0 0.00 0.00 0.00 91 1016.1
20260508090913 43 67 0.0 0.0 0.00 0.00 0.00 90 1016.1
20260508090411 44 96 0.0 0.0 0.00 0.00 0.00 90 1016.3
20260508085906 44 89 2.0 2.0 0.00 0.00 0.00 89 1016.3
20260508085403 44 37 0.0 1.0 0.00 0.00 0.00 89 1016.1
20260508084900 44 68 2.0 2.0 0.00 0.00 0.00 89 1015.9
20260508084356 45 42 0.0 0.0 0.00 0.00 0.00 89 1016.3
20260508083854 45 57 0.0 0.0 0.00 0.00 0.00 88 1016.3
20260508083352 46 57 0.0 0.0 0.00 0.00 0.00 88 1016.1
20260508082851 46 57 0.0 0.0 0.00 0.00 0.00 88 1016.4
20260508082349 46 57 1.0 1.0 0.00 0.00 0.00 87 1016.4
20260508081846 46 96 2.0 2.0 0.00 0.00 0.00 88 1016.3
20260508081343 46 89 3.0 3.0 0.00 0.00 0.00 88 1016.3
20260508080840 47 91 3.0 3.0 0.00 0.00 0.00 86 1016.4
20260508080338 47 91 1.0 2.0 0.00 0.00 0.00 86 1016.5
20260508075834 47 124 0.0 0.0 0.00 0.00 0.00 85 1016.3
20260508075331 48 125 1.0 1.0 0.00 0.00 0.00 85 1016.3
20260508074829 48 232 2.0 2.0 0.00 0.00 0.00 83 1016.3
20260508074326 48 225 1.0 1.0 0.00 0.00 0.00 83 1016.3
20260508073823 49 226 2.0 2.0 0.00 0.00 0.00 83 1016.3
20260508073321 49 225 2.0 2.0 0.00 0.00 0.00 83 1016.1
20260508072817 49 211 4.0 5.0 0.00 0.00 0.00 83 1016.4
20260508072314 49 208 5.0 6.0 0.00 0.00 0.00 84 1016.1
20260508071811 48 220 5.0 6.0 0.00 0.00 0.00 84 1016.3
20260508071309 48 226 5.0 7.0 0.00 0.00 0.00 84 1016.4
20260508070806 49 212 6.0 7.0 0.00 0.00 0.00 83 1016.4
20260508070305 50 179 2.0 2.0 0.00 0.00 0.00 79 1016.3
20260508065802 50 180 3.0 3.0 0.00 0.00 0.00 78 1016.4
20260508065259 50 152 2.0 2.0 0.00 0.00 0.00 79 1016.3
20260508064757 50 121 2.0 2.0 0.00 0.00 0.00 80 1016.4
20260508064255 50 100 2.0 2.0 0.00 0.00 0.00 79 1016.3
20260508063752 50 83 2.0 2.0 0.00 0.00 0.00 79 1016.4
20260508063250 49 111 3.0 3.0 0.00 0.00 0.00 81 1016.3
20260508062747 49 67 2.0 2.0 0.00 0.00 0.00 83 1016.5
20260508062245 50 339 4.0 6.0 0.00 0.00 0.00 80 1016.5
20260508061741 49 58 0.0 0.0 0.00 0.00 0.00 78 1016.3
20260508061238 49 72 0.0 0.0 0.00 0.00 0.00 79 1016.1
20260508060735 50 91 3.0 3.0 0.00 0.00 0.00 78 1016.0
20260508060233 50 87 1.0 1.0 0.00 0.00 0.00 78 1015.9
20260508055728 51 61 2.0 2.0 0.00 0.04 0.04 77 1015.8
20260508055225 51 193 1.0 1.0 0.00 0.04 0.04 77 1015.8
20260508054721 50 201 4.0 5.0 0.00 0.04 0.04 77 1015.7
20260508054220 51 190 4.0 5.0 0.00 0.04 0.04 77 1015.5
20260508053716 51 169 5.0 7.0 0.00 0.04 0.04 76 1015.5
20260508053214 51 159 4.0 6.0 0.00 0.04 0.04 76 1015.6
20260508052711 50 119 2.0 2.0 0.00 0.04 0.04 77 1015.9
20260508052208 50 120 2.0 2.0 0.00 0.04 0.04 76 1015.7
20260508051704 50 179 3.0 3.0 0.00 0.04 0.04 76 1015.7
20260508051159 49 143 3.0 3.0 0.00 0.04 0.04 78 1015.6
20260508050656 49 42 1.0 1.0 0.00 0.04 0.04 80 1015.8
20260508050154 51 48 1.0 2.0 0.00 0.04 0.04 76 1015.8
20260508045649 50 105 2.0 2.0 0.00 0.04 0.04 79 1015.7
20260508045147 49 108 1.0 1.0 0.00 0.04 0.04 80 1015.7
20260508044644 49 86 3.0 3.0 0.00 0.04 0.04 81 1015.4
20260508044140 51 59 3.0 5.0 0.00 0.04 0.04 78 1015.5
20260508043636 51 169 1.0 2.0 0.00 0.04 0.04 78 1015.4
20260508043135 51 127 1.0 2.0 0.00 0.04 0.04 77 1015.4
20260508042631 51 137 1.0 1.0 0.00 0.04 0.04 76 1015.4
20260508042128 51 169 2.0 2.0 0.00 0.04 0.04 76 1015.4
20260508041624 51 135 3.0 3.0 0.00 0.04 0.04 75 1015.1
20260508041121 52 128 3.0 3.0 0.00 0.04 0.04 73 1015.3
20260508040618 53 135 2.0 2.0 0.00 0.04 0.04 73 1015.3
20260508040116 53 115 3.0 3.0 0.00 0.04 0.04 72 1015.3
20260508035613 53 114 3.0 3.0 0.00 0.04 0.04 72 1015.3
20260508035110 53 150 4.0 5.0 0.00 0.04 0.04 70 1015.3
20260508034606 53 116 2.0 2.0 0.00 0.04 0.04 69 1015.3
20260508034103 53 114 0.0 0.0 0.00 0.04 0.04 69 1015.1
20260508033601 54 113 0.0 0.0 0.00 0.04 0.04 68 1014.9
20260508033059 54 148 0.0 0.0 0.00 0.04 0.04 68 1014.9
20260508032555 54 117 1.0 1.0 0.00 0.04 0.04 68 1014.9
20260508032053 54 79 1.0 1.0 0.00 0.04 0.04 68 1015.0
20260508031550 55 79 2.0 2.0 0.00 0.04 0.04 66 1014.8
20260508031046 55 78 1.0 1.0 0.00 0.04 0.04 66 1014.8
20260508030542 55 74 3.0 3.0 0.00 0.04 0.04 67 1014.5
20260508030041 56 122 1.0 1.0 0.00 0.04 0.04 63 1014.4
20260508025536 57 193 0.0 0.0 0.00 0.04 0.04 62 1014.6
20260508025034 57 193 0.0 0.0 0.00 0.04 0.04 61 1014.6
20260508024529 57 193 2.0 2.0 0.00 0.04 0.04 61 1014.4
20260508024026 58 197 4.0 5.0 0.00 0.04 0.04 60 1014.4
20260508023523 58 168 2.0 2.0 0.00 0.04 0.04 60 1014.2
20260508023021 59 153 1.0 2.0 0.00 0.04 0.04 59 1014.4
20260508022516 59 154 2.0 2.0 0.00 0.04 0.04 58 1014.1
20260508022013 60 183 1.0 1.0 0.00 0.04 0.04 57 1014.0
20260508021509 60 198 2.0 2.0 0.00 0.04 0.04 56 1014.2
20260508021005 60 177 1.0 1.0 0.00 0.04 0.04 56 1014.1
20260508020503 61 215 1.0 1.0 0.00 0.04 0.04 54 1014.0
20260508020000 62 164 1.0 1.0 0.00 0.04 0.04 54 1014.0
20260508015458 62 204 3.0 3.0 0.00 0.04 0.04 52 1014.1
20260508014954 62 197 4.0 5.0 0.00 0.04 0.04 52 1014.1
20260508014451 62 182 3.0 3.0 0.00 0.04 0.04 52 1013.9
20260508013947 62 214 5.0 5.0 0.00 0.04 0.04 51 1013.9
20260508013443 62 222 4.0 5.0 0.00 0.04 0.04 51 1013.9
20260508012941 62 155 4.0 5.0 0.00 0.04 0.04 52 1013.8
20260508012437 62 152 3.0 3.0 0.00 0.04 0.04 51 1013.8
20260508011935 62 166 6.0 7.0 0.00 0.04 0.04 50 1013.9
20260508011434 62 199 3.0 3.0 0.00 0.04 0.04 53 1013.9
20260508010930 62 213 4.0 5.0 0.00 0.04 0.04 49 1014.0
20260508010427 62 214 4.0 5.0 0.00 0.04 0.04 48 1013.8
20260508005924 63 172 5.0 6.0 0.00 0.04 0.04 48 1014.1
20260508005421 63 151 2.0 2.0 0.00 0.04 0.04 47 1014.0
20260508004917 63 234 4.0 6.0 0.00 0.04 0.04 47 1014.0
20260508004414 64 226 7.0 8.0 0.00 0.04 0.04 48 1014.2
20260508003910 64 225 4.0 5.0 0.00 0.04 0.04 46 1014.2
20260508003407 63 335 1.0 1.0 0.00 0.04 0.04 47 1014.4
20260508002904 62 16 1.0 2.0 0.00 0.04 0.04 49 1014.4
20260508002401 62 34 4.0 6.0 0.00 0.04 0.04 49 1014.6
20260508001857 63 20 3.0 3.0 0.00 0.04 0.04 50 1014.6
20260508001353 62 72 2.0 2.0 0.00 0.04 0.04 50 1014.7
20260508000849 62 53 1.0 1.0 0.00 0.04 0.04 53 1014.6
20260508000346 62 327 3.0 5.0 0.00 0.04 0.04 49 1014.5
20260507235843 62 43 3.0 3.0 0.00 0.04 0.04 50 1014.5
20260507235340 62 18 1.0 1.0 0.00 0.04 0.04 51 1014.5
20260507234837 62 350 2.0 2.0 0.00 0.04 0.04 49 1014.1
20260507234333 61 122 3.0 3.0 0.00 0.04 0.04 51 1014.2
20260507233830 60 124 5.0 6.0 0.00 0.04 0.04 52 1014.2
20260507233328 60 96 6.0 8.0 0.00 0.04 0.04 55 1013.9
20260507232826 60 108 7.0 8.0 0.00 0.04 0.04 56 1013.9
20260507232322 62 90 8.0 9.0 0.00 0.04 0.04 56 1014.0
20260507231819 62 72 2.0 5.0 0.00 0.04 0.04 54 1014.2
20260507231316 61 31 2.0 5.0 0.00 0.04 0.04 57 1014.2
20260507230812 62 51 7.0 9.0 0.00 0.04 0.04 53 1014.4
20260507230309 61 358 5.0 7.0 0.00 0.04 0.04 54 1014.0
20260507225804 62 41 8.0 11.0 0.00 0.04 0.04 55 1013.9
20260507225300 61 4 3.0 5.0 0.00 0.04 0.04 58 1014.1
20260507224756 61 8 3.0 3.0 0.00 0.04 0.04 60 1014.2
20260507224253 60 55 8.0 10.0 0.00 0.04 0.04 60 1014.0
20260507223749 59 7 7.0 9.0 0.00 0.04 0.04 62 1014.1
20260507223246 58 318 8.0 11.0 0.00 0.04 0.04 61 1014.4
20260507222743 59 29 13.0 15.0 0.00 0.04 0.04 62 1014.1
20260507222239 60 353 12.0 17.0 0.00 0.04 0.04 61 1014.1
20260507221736 64 359 3.0 5.0 0.00 0.04 0.04 53 1014.0
20260507221232 64 293 6.0 6.0 0.00 0.04 0.04 48 1013.7
20260507220729 66 169 3.0 3.0 0.00 0.04 0.04 46 1013.5
20260507220227 65 61 1.0 1.0 0.00 0.04 0.04 49 1013.6
20260507215723 65 69 2.0 3.0 0.00 0.04 0.04 47 1013.6
20260507215221 66 2 3.0 3.0 0.00 0.04 0.04 47 1013.6
20260507214718 67 98 4.0 5.0 0.00 0.04 0.04 45 1013.8
20260507214215 66 72 5.0 6.0 0.00 0.04 0.04 44 1013.7
20260507213710 66 43 3.0 5.0 0.00 0.04 0.04 48 1013.8
20260507213208 66 79 6.0 8.0 0.00 0.04 0.04 46 1014.0
20260507212703 67 20 6.0 8.0 0.00 0.04 0.04 46 1013.9
20260507212200 67 43 4.0 6.0 0.00 0.04 0.04 45 1013.8
20260507211657 68 357 7.0 9.0 0.00 0.04 0.04 43 1014.0
20260507211152 67 44 4.0 6.0 0.00 0.04 0.04 48 1014.0
20260507210650 66 51 4.0 5.0 0.00 0.04 0.04 46 1014.1
20260507210146 68 7 9.0 10.0 0.00 0.04 0.04 46 1014.1
20260507205643 67 313 4.0 8.0 0.00 0.04 0.04 48 1014.4
20260507205140 66 338 7.0 9.0 0.00 0.04 0.04 48 1014.6
20260507204636 66 348 8.0 10.0 0.00 0.04 0.04 48 1014.5
20260507204134 66 63 5.0 7.0 0.00 0.04 0.04 50 1014.4
20260507203632 64 18 8.0 9.0 0.00 0.04 0.04 50 1014.1
20260507203129 64 357 7.0 9.0 0.00 0.04 0.04 49 1014.4
20260507202625 64 12 2.0 2.0 0.00 0.04 0.04 49 1014.2
20260507202121 64 39 5.0 6.0 0.00 0.04 0.04 52 1014.5
20260507201616 64 336 3.0 3.0 0.00 0.04 0.04 50 1014.4
20260507201114 64 327 3.0 3.0 0.00 0.04 0.04 49 1014.4
20260507200609 65 39 2.0 3.0 0.00 0.04 0.04 50 1014.5
20260507200105 66 298 4.0 5.0 0.00 0.04 0.04 47 1014.4
20260507195603 67 31 4.0 5.0 0.00 0.04 0.04 43 1014.2
20260507195100 67 293 11.0 11.0 0.00 0.04 0.04 43 1014.1
20260507194556 66 273 8.0 9.0 0.00 0.04 0.04 44 1014.4
20260507194052 65 2 3.0 5.0 0.00 0.04 0.04 51 1014.4
20260507193549 65 76 3.0 3.0 0.00 0.04 0.04 52 1014.4
20260507193046 65 104 3.0 5.0 0.00 0.04 0.04 53 1014.6
20260507192542 64 333 0.0 1.0 0.00 0.04 0.04 53 1014.5
20260507192039 63 26 0.0 1.0 0.00 0.04 0.04 51 1014.6
20260507191534 62 3 2.0 2.0 0.00 0.04 0.04 53 1014.5
20260507191032 62 10 2.0 2.0 0.00 0.04 0.04 53 1014.7
20260507190529 62 56 1.0 2.0 0.00 0.04 0.04 53 1014.8
20260507190028 63 7 5.0 6.0 0.00 0.04 0.04 53 1014.8
20260507185526 64 358 5.0 6.0 0.00 0.04 0.04 53 1014.9
20260507185022 63 358 2.0 2.0 0.00 0.04 0.04 54 1014.8
20260507184521 63 45 4.0 6.0 0.00 0.04 0.04 57 1015.0
20260507184018 62 334 5.0 7.0 0.00 0.04 0.04 56 1014.9
20260507183513 61 37 7.0 9.0 0.00 0.04 0.04 58 1015.1
20260507183011 62 53 7.0 8.0 0.00 0.04 0.04 59 1015.0
20260507182507 63 38 5.0 7.0 0.00 0.04 0.04 57 1015.0
20260507182003 63 7 5.0 7.0 0.00 0.04 0.04 59 1015.1
20260507181500 61 13 2.0 2.0 0.00 0.04 0.04 59 1015.0
20260507180956 59 4 6.0 7.0 0.00 0.04 0.04 65 1015.3
20260507180453 59 331 7.0 13.0 0.00 0.04 0.04 64 1015.3
20260507175949 59 337 9.0 10.0 0.00 0.04 0.04 64 1015.1
20260507175446 59 11 7.0 8.0 0.00 0.04 0.04 62 1015.0
20260507174944 59 2 3.0 5.0 0.00 0.04 0.04 61 1015.1
20260507174440 60 52 5.0 6.0 0.00 0.04 0.04 59 1014.9
20260507173938 60 46 4.0 6.0 0.00 0.04 0.04 60 1014.9
20260507173435 60 23 3.0 5.0 0.00 0.04 0.04 60 1014.9
20260507172932 60 285 3.0 3.0 0.00 0.04 0.04 62 1014.8
20260507172428 61 272 6.0 6.0 0.00 0.04 0.04 60 1014.7
20260507171925 61 270 6.0 7.0 0.00 0.04 0.04 60 1014.7
20260507171421 61 272 8.0 8.0 0.00 0.04 0.04 58 1014.7
20260507170918 62 271 6.0 7.0 0.00 0.04 0.04 60 1014.7
20260507170414 62 266 5.0 6.0 0.00 0.04 0.04 61 1014.7
20260507165911 62 268 5.0 6.0 0.00 0.04 0.04 59 1014.7
20260507165407 62 247 5.0 6.0 0.00 0.04 0.04 60 1014.7
20260507164903 61 268 7.0 7.0 0.00 0.04 0.04 59 1014.7
20260507164400 61 268 5.0 5.0 0.00 0.04 0.04 61 1014.8
20260507163857 62 264 5.0 6.0 0.00 0.04 0.04 60 1014.7
20260507163355 61 279 6.0 8.0 0.00 0.04 0.04 63 1014.7
20260507162851 61 257 6.0 7.0 0.00 0.04 0.04 61 1014.8
20260507162346 60 271 4.0 5.0 0.00 0.04 0.04 66 1014.8
20260507161844 59 305 4.0 5.0 0.00 0.04 0.04 69 1014.9
20260507161340 57 305 3.0 3.0 0.00 0.04 0.04 70 1014.9
20260507160837 58 299 3.0 5.0 0.00 0.04 0.04 69 1014.9
20260507160332 58 298 5.0 6.0 0.00 0.04 0.04 68 1015.3
20260507155829 58 10 3.0 3.0 0.00 0.04 0.04 68 1015.3
20260507155325 57 356 2.0 2.0 0.00 0.04 0.04 70 1015.1
20260507154822 57 19 1.0 2.0 0.00 0.04 0.04 72 1015.1
20260507154319 57 333 1.0 2.0 0.00 0.04 0.04 74 1015.4
20260507153816 57 31 0.0 1.0 0.00 0.04 0.04 74 1015.1
20260507153312 56 10 0.0 1.0 0.00 0.04 0.04 74 1015.3
20260507152809 56 337 2.0 2.0 0.00 0.04 0.04 73 1015.3
20260507152306 56 40 0.0 0.0 0.00 0.04 0.04 73 1015.3
20260507151801 55 52 1.0 2.0 0.00 0.04 0.04 74 1015.1
20260507151257 57 72 2.0 2.0 0.00 0.04 0.04 72 1015.0
20260507150755 57 55 0.0 0.0 0.00 0.04 0.04 75 1015.1
20260507150251 54 111 2.0 2.0 0.00 0.04 0.04 78 1014.9
20260507145747 54 87 1.0 1.0 0.00 0.04 0.04 78 1015.1
20260507145244 53 282 2.0 2.0 0.00 0.04 0.04 80 1015.1
20260507144741 53 276 3.0 5.0 0.00 0.04 0.04 79 1015.3
20260507144239 53 288 5.0 6.0 0.00 0.04 0.04 82 1015.3
20260507143735 52 301 3.0 3.0 0.00 0.04 0.04 84 1014.9
20260507143232 53 336 1.0 2.0 0.00 0.04 0.04 83 1015.0
20260507142728 53 30 0.0 0.0 0.00 0.04 0.04 83 1014.8
20260507142225 51 30 0.0 0.0 0.00 0.04 0.04 86 1014.8
20260507141721 51 49 0.0 0.0 0.00 0.04 0.04 88 1014.7
20260507141219 51 141 0.0 0.0 0.00 0.04 0.04 88 1014.5
20260507140714 51 57 0.0 0.0 0.00 0.04 0.04 88 1014.2
20260507140212 51 11 0.0 0.0 0.00 0.04 0.04 87 1014.2
20260507135709 51 309 0.0 0.0 0.00 0.04 0.04 87 1014.5
20260507135206 50 348 0.0 0.0 0.00 0.04 0.04 88 1014.6
20260507134702 50 27 2.0 2.0 0.00 0.04 0.04 89 1014.7
20260507134159 50 22 1.0 1.0 0.00 0.04 0.04 88 1014.6
20260507133654 49 231 3.0 3.0 0.00 0.04 0.04 90 1014.2
20260507133152 49 168 2.0 2.0 0.00 0.04 0.04 91 1014.4
20260507132649 49 232 2.0 2.0 0.00 0.04 0.04 90 1014.2
20260507132145 49 199 1.0 2.0 0.00 0.04 0.04 90 1014.2
20260507131643 49 126 1.0 1.0 0.00 0.04 0.04 89 1014.1
20260507131140 49 112 2.0 2.0 0.00 0.04 0.04 88 1014.0
20260507130636 49 115 3.0 3.0 0.00 0.04 0.04 89 1013.9
20260507130134 48 81 0.0 0.0 0.00 0.04 0.04 89 1014.2
20260507125633 48 81 0.0 0.0 0.00 0.04 0.04 89 1014.1
20260507125130 48 81 0.0 0.0 0.00 0.04 0.04 89 1014.2